Airfield :
LOGIN :

Register | Disclaimer

   EN    FR    IT 

 










Legend :    VFR   Marginal VFR   IFR   Intensive IFR   Very Intensive IFR
Visi :
Ceiling :
>= 8 km
>= 3000ft
5 to 8 km
1000 to 3000 ft
1500m to 5 km
500 to 1000 ft
800 to 1500m
200 to 500 ft
< 800m
< 200 ft
Symbols :   Thunderstorms  Fog  Heavy snow  Heavy precipitations  Wind > 20 kt
SIGMETs :     Misc.  Thunderstorms  Icing  Turbulence  Mountain Waves  Volcanic Ashes







- Airport Elevation : 1959 ft
- IATA code : HOQ


EDQM - Hof Plauen

CURRENT METAR :
  • 221150Z 04016KT CAVOK M02/M10 Q1018

EXPIRED METARs :
  • 221120Z 03015KT CAVOK M02/M10 Q1018
  • 221050Z 03017KT CAVOK M03/M10 Q1018
  • 221020Z 03018KT CAVOK M03/M10 Q1019
  • 220950Z 03016KT CAVOK M04/M10 Q1019
  • 220920Z 03014KT CAVOK M05/M10 Q1019

TAF TAF EDQM
Valid from the 22 at 12:00 until the 22 at 21:00 UTC


221100Z 2212/2221 03015G25KT CAVOK
BECMG 2216/2218 05010KT
No reported NOTAMs for that airfield.



MET'MAP, your aeronautical weather chart ! - Copyright ORBIFLY December 2007 - Disclaimer

ORBIFLY MET'MAP TEAM :

Programming & Development : Alexandra Zaïnal
Concept & Development : Baudouin d'Aumeries
Co-Development & Prog : Marc-Olivier Méhu
Technical & hardware support : Manuel Goepfert

Contact : metmap@orbifly.com




SOURCES & CREDITS :

   NOAA